This is the latest recevied weather packets stored in our database for station/object KD4EG. If no packets are shown the sender has not sent any weather packets the latest 10 day(s).
| Time | Temp. | Humidity | Pressure | Rain* | Wind** | Luminosity | Snow |
|---|---|---|---|---|---|---|---|
| 1778086385 | 18.89° C | 86% | 1014.2 hPa | 0 mm | - | 122 W/m² | - |
| 1778086082 | 18.89° C | 85% | 1014.2 hPa | 0 mm | - | 140 W/m² | - |
| 1778085779 | 18.89° C | 83% | 1014.1 hPa | 0 mm | - | 119 W/m² | - |
| 1778085475 | 18.89° C | 82% | 1014.3 hPa | 0 mm | - | 143 W/m² | - |
| 1778085170 | 18.89° C | 82% | 1014.3 hPa | 0 mm | - | 162 W/m² | - |
| 1778084866 | 18.89° C | 82% | 1014.5 hPa | 0 mm | - | 159 W/m² | - |
| 1778084564 | 18.89° C | 82% | 1014.2 hPa | 0 mm | - | 146 W/m² | - |
| 1778084262 | 18.89° C | 82% | 1014.6 hPa | 0 mm | - | 124 W/m² | - |
| 1778083959 | 18.89° C | 82% | 1014.4 hPa | 0 mm | - | 127 W/m² | - |
| 1778083656 | 18.89° C | 82% | 1014.2 hPa | 0 mm | - | 119 W/m² | - |
| 1778083353 | 18.89° C | 82% | 1014 hPa | 0 mm | - | 119 W/m² | - |
| 1778083051 | 18.89° C | 82% | 1013.9 hPa | 0 mm | - | 117 W/m² | - |
| 1778082748 | 18.89° C | 82% | 1014.1 hPa | 0 mm | - | 148 W/m² | - |
| 1778081615 | 17.78° C | 84% | 1013.8 hPa | 0 mm | - | 284 W/m² | - |
| 1778081312 | 17.78° C | 84% | 1014.1 hPa | 0 mm | - | 184 W/m² | - |
| 1778081009 | 17.78° C | 84% | 1014 hPa | 0 mm | - | 147 W/m² | - |
| 1778080708 | 17.78° C | 85% | 1013.9 hPa | 0 mm | - | 135 W/m² | - |
| 1778080404 | 17.78° C | 85% | 1013.8 hPa | 0 mm | - | 136 W/m² | - |
| 1778080101 | 17.78° C | 85% | 1013.8 hPa | 0 mm | - | 142 W/m² | - |
| 1778079798 | 17.78° C | 85% | 1013.8 hPa | 0 mm | - | 216 W/m² | - |
| 1778079495 | 17.22° C | 85% | 1014.2 hPa | 0 mm | - | 196 W/m² | - |
| 1778079191 | 17.22° C | 87% | 1014.2 hPa | 0 mm | - | 146 W/m² | - |
| 1778078889 | 17.22° C | 87% | 1014 hPa | 0 mm | - | 118 W/m² | - |
| 1778078585 | 17.22° C | 88% | 1013.7 hPa | 0 mm | - | 106 W/m² | - |
| 1778078284 | 17.22° C | 88% | 1013.7 hPa | 0 mm | - | 184 W/m² | - |
* Rain latest hour (hover to see other rain measurements)
** Current wind speed in m/s (hover to see current wind gust speed)